Change the Weather History Date:

Thursday, May 29, 2014

  Actual Average Record
Temperature  
Mean Temperature 73 °F -  
Max Temperature 87 °F 74 °F 91 °F (1958)
Min Temperature 59 °F 50 °F 35 °F (1992)
Cooling Degree Days 8    
Growing Degree Days 23 (Base 50)    
Moisture  
Dew Point 53 °F    
Average Humidity 51    
Maximum Humidity 83    
Minimum Humidity 25    
Precipitation  
Precipitation 0.00 in - - ()
Sea Level Pressure  
Sea Level Pressure 30.02 in    
Wind  
Wind Speed 7 mph (SE)    
Max Wind Speed 14 mph    
Max Gust Speed 21 mph    
Visibility 10 miles    
Events      
Averages and records for this station are not official NWS values.
T = Trace of Precipitation, MM = Missing Value Source: NWS Daily Summary

Daily Weather History Graph

Daily Weather History Graph

Search for Another Location

Airport or City:

Trip Planner

Search our weather history database for the weather conditions in past years. The results will help you decide how hot, cold, wet, or windy it might be!

Date:

Astronomy

May. 29, 2014 Rise Set
Actual Time 6:01 AM CDT 9:03 PM CDT
Civil Twilight 5:28 AM CDT 9:36 PM CDT
Nautical Twilight 4:45 AM CDT 10:20 PM CDT
Astronomical Twilight 3:54 AM CDT 11:11 PM CDT
Moon 6:57 AM CDT (5/29) 9:53 PM CDT (5/29)
Length of Visible Light 16h 08m
Length of Day
15h 01m
New Moon, 1% of the Moon is Illuminated
May 29
New Moon
Jun 5
First Quarter
Jun 12
Full
Jun 19
Last Quarter
Jun 27
New

Hourly Weather History & Observations

Time (CDT) Temp. Heat Index Dew Point Humidity Pressure Visibility Wind Dir Wind Speed Gust Speed Precip Events Conditions
12:15 AM 68.7 °F - 53.8 °F 59% 30.04 in 10.0 mi ESE 6.9 mph - N/A   Clear
12:35 AM 68.0 °F - 53.6 °F 60% 30.04 in 10.0 mi SE 5.8 mph - N/A   Clear
12:55 AM 67.6 °F - 54.0 °F 61% 30.04 in 10.0 mi SE 5.8 mph - N/A   Clear
1:15 AM 66.7 °F - 54.0 °F 63% 30.04 in 10.0 mi SE 4.6 mph - N/A   Clear
1:35 AM 66.2 °F - 54.0 °F 65% 30.04 in 10.0 mi SSE 4.6 mph - N/A   Clear
1:55 AM 65.5 °F - 54.0 °F 66% 30.04 in 10.0 mi SE 4.6 mph - N/A   Clear
2:15 AM 65.1 °F - 54.1 °F 68% 30.04 in 10.0 mi Calm Calm - N/A   Clear
2:35 AM 64.2 °F - 54.1 °F 70% 30.04 in 10.0 mi SSE 3.5 mph - N/A   Clear
2:55 AM 63.1 °F - 54.1 °F 72% 30.04 in 10.0 mi SSE 4.6 mph - N/A   Clear
3:15 AM 62.6 °F - 54.3 °F 74% 30.04 in 10.0 mi SE 4.6 mph - N/A   Clear
3:35 AM 62.6 °F - 54.1 °F 74% 30.05 in 10.0 mi SSE 4.6 mph - N/A   Clear
3:55 AM 62.6 °F - 54.5 °F 75% 30.04 in 10.0 mi SSE 5.8 mph - N/A   Clear
4:15 AM 61.9 °F - 54.3 °F 76% 30.04 in 10.0 mi SSE 4.6 mph - N/A   Clear
4:35 AM 61.7 °F - 54.1 °F 76% 30.04 in 10.0 mi SSE 3.5 mph - N/A   Clear
4:55 AM 60.4 °F - 54.0 °F 79% 30.04 in 7.0 mi SE 4.6 mph - N/A   Clear
5:15 AM 60.3 °F - 54.5 °F 81% 30.04 in 7.0 mi SE 6.9 mph - N/A   Clear
5:35 AM 60.8 °F - 54.7 °F 80% 30.04 in 7.0 mi SE 5.8 mph - N/A   Clear
5:55 AM 60.1 °F - 54.5 °F 82% 30.04 in 5.0 mi SE 5.8 mph - N/A   Haze
6:15 AM 59.9 °F - 54.5 °F 82% 30.04 in 5.0 mi SE 5.8 mph - N/A   Haze
6:35 AM 60.1 °F - 54.9 °F 83% 30.04 in 5.0 mi SE 4.6 mph - N/A   Haze
6:55 AM 60.8 °F - 55.4 °F 82% 30.05 in 5.0 mi SE 3.5 mph - N/A   Haze
7:15 AM 63.0 °F - 56.7 °F 80% 30.05 in 7.0 mi SE 4.6 mph - N/A   Clear
7:35 AM 65.1 °F - 57.7 °F 77% 30.05 in 7.0 mi SSE 4.6 mph - N/A   Clear
7:55 AM 66.4 °F - 58.3 °F 75% 30.06 in 10.0 mi SSE 5.8 mph - N/A   Clear
8:15 AM 69.3 °F - 59.5 °F 71% 30.06 in 10.0 mi SSE 8.1 mph - N/A   Clear
8:35 AM 71.8 °F - 59.4 °F 65% 30.06 in 10.0 mi SSE 8.1 mph - N/A   Clear
8:55 AM 73.4 °F - 59.5 °F 62% 30.06 in 10.0 mi SSE 10.4 mph - N/A   Clear
9:15 AM 73.8 °F - 60.1 °F 62% 30.07 in 10.0 mi SE 8.1 mph - N/A   Clear
9:35 AM 75.4 °F - 60.1 °F 59% 30.07 in 10.0 mi SE 11.5 mph - N/A   Clear
9:55 AM 76.5 °F - 59.7 °F 56% 30.06 in 10.0 mi SE 10.4 mph - N/A   Clear
10:15 AM 77.5 °F - 58.8 °F 52% 30.06 in 10.0 mi ESE 9.2 mph - N/A   Clear
10:35 AM 78.8 °F - 58.6 °F 50% 30.06 in 10.0 mi ESE 10.4 mph - N/A   Clear
10:55 AM 79.9 °F - 55.8 °F 43% 30.05 in 10.0 mi ESE 13.8 mph - N/A   Clear
11:15 AM 80.6 °F 80.3 °F 53.8 °F 39% 30.05 in 10.0 mi ESE 12.7 mph 16.1 mph N/A   Clear
11:35 AM 81.7 °F - 52.7 °F 37% 30.04 in 10.0 mi SE 10.4 mph - N/A   Clear
11:55 AM 81.7 °F - 50.9 °F 34% 30.04 in 10.0 mi SE 8.1 mph 16.1 mph N/A   Clear
12:15 PM 82.2 °F - 52.3 °F 35% 30.04 in 10.0 mi ESE 12.7 mph - N/A   Clear
12:35 PM 82.2 °F - 51.8 °F 35% 30.04 in 10.0 mi ESE 8.1 mph - N/A   Clear
12:55 PM 82.4 °F 81.4 °F 53.6 °F 37% 30.03 in 10.0 mi ESE 8.1 mph - N/A   Clear
1:15 PM 83.1 °F - 51.6 °F 34% 30.02 in 10.0 mi ESE 10.4 mph 19.6 mph N/A   Clear
1:35 PM 84.0 °F - 51.8 °F 33% 30.02 in 10.0 mi ESE 11.5 mph - N/A   Clear
1:55 PM 84.2 °F - 50.4 °F 31% 30.01 in 10.0 mi SE 13.8 mph 20.7 mph N/A   Clear
2:15 PM 84.6 °F - 48.9 °F 29% 30.00 in 10.0 mi ESE 11.5 mph 16.1 mph N/A   Clear
2:35 PM 84.9 °F - 48.0 °F 28% 30.00 in 10.0 mi ESE 8.1 mph - N/A   Clear
2:55 PM 85.3 °F - 47.1 °F 26% 30.00 in 10.0 mi ESE 8.1 mph - N/A   Clear
3:15 PM 86.4 °F - 46.8 °F 25% 30.00 in 10.0 mi ESE 10.4 mph - N/A   Clear
3:35 PM 86.2 °F - 47.1 °F 26% 29.99 in 10.0 mi SE 9.2 mph - N/A   Clear
3:55 PM 85.8 °F - 46.6 °F 25% 29.99 in 10.0 mi East 8.1 mph - N/A   Clear
4:15 PM 87.1 °F - 48.0 °F 26% 29.98 in 10.0 mi ESE 6.9 mph - N/A   Clear
4:35 PM 86.7 °F - 47.8 °F 26% 29.98 in 10.0 mi ESE 8.1 mph - N/A   Clear
4:55 PM 86.7 °F - 48.2 °F 26% 29.98 in 10.0 mi ESE 9.2 mph - N/A   Clear
5:15 PM 86.5 °F - 47.7 °F 26% 29.97 in 10.0 mi East 8.1 mph - N/A   Clear
5:35 PM 86.5 °F - 48.0 °F 26% 29.97 in 10.0 mi East 10.4 mph - N/A   Clear
5:55 PM 86.9 °F - 47.5 °F 25% 29.97 in 10.0 mi SE 6.9 mph - N/A   Clear
6:15 PM 86.4 °F - 47.8 °F 26% 29.96 in 10.0 mi East 8.1 mph - N/A   Clear
6:35 PM 85.8 °F - 47.7 °F 26% 29.96 in 10.0 mi ESE 11.5 mph - N/A   Clear
6:55 PM 85.8 °F - 47.8 °F 27% 29.96 in 10.0 mi ESE 9.2 mph - N/A   Clear
7:15 PM 85.1 °F - 49.3 °F 29% 29.96 in 10.0 mi ESE 9.2 mph - N/A   Clear
7:35 PM 84.2 °F - 50.0 °F 30% 29.96 in 10.0 mi ESE 10.4 mph - N/A   Clear
7:55 PM 82.9 °F - 49.8 °F 32% 29.96 in 10.0 mi ESE 10.4 mph - N/A   Clear
8:15 PM 81.9 °F - 50.7 °F 34% 29.96 in 10.0 mi ESE 10.4 mph - N/A   Clear
8:35 PM 80.4 °F - 51.8 °F 37% 29.96 in 10.0 mi ESE 9.2 mph - N/A   Clear
8:55 PM 79.7 °F - 52.0 °F 38% 29.96 in 10.0 mi ESE 11.5 mph - N/A   Clear
9:15 PM 78.1 °F - 53.2 °F 42% 29.97 in 10.0 mi ESE 9.2 mph - N/A   Clear
9:35 PM 77.0 °F - 53.6 °F 44% 29.97 in 10.0 mi ESE 10.4 mph - N/A   Clear
9:55 PM 76.1 °F - 53.8 °F 46% 29.98 in 10.0 mi ESE 10.4 mph - N/A   Clear
10:15 PM 75.2 °F - 54.1 °F 48% 29.99 in 10.0 mi ESE 10.4 mph - N/A   Clear
10:35 PM 74.3 °F - 54.5 °F 50% 30.00 in 10.0 mi ESE 8.1 mph - N/A   Clear
10:55 PM 73.2 °F - 55.4 °F 54% 30.01 in 10.0 mi SE 8.1 mph - N/A   Clear
11:15 PM 72.1 °F - 55.6 °F 56% 30.01 in 10.0 mi SE 6.9 mph - N/A   Clear
11:35 PM 71.2 °F - 55.8 °F 58% 30.01 in 10.0 mi SE 6.9 mph - N/A   Clear
11:55 PM 70.9 °F - 55.6 °F 58% 30.01 in 10.0 mi SE 6.9 mph - N/A   Clear